Location: Pasadena, ca
(34.1243°N, 118.1037°W)
Time: 00:21:50
(UTC-08:00)

ISS - Pass Details

Date: 16 November 2017
Orbit: 402 x 407 km, 51.6° (Epoch: 21 November)

Event Time Altitude Azimuth Distance (km) Brightness Sun altitude
Exits shadow 04:21:33 12° 37° (NE) 1,348 -0.9 -25.8°
Drops below altitude 10° 04:22:26 10° 53° (NE) 1,451 -0.5 -25.6°
Sets 04:25:34 0° 86° (E) 2,307 1.3 -25.0°
